Year,Month,Day,Hour,Minute,Value (Times are PST for windspeed in km/hr)
2008,02,05,00,00,0.00
2008,02,05,00,01,2.70
2008,02,05,00,02,4.10
2008,02,05,00,03,2.90
2008,02,05,00,04,0.20
2008,02,05,00,05,0.70
2008,02,05,00,06,1.30
2008,02,05,00,07,3.50
2008,02,05,00,08,2.40
2008,02,05,00,09,0.90
2008,02,05,00,10,2.50
2008,02,05,00,11,0.80
2008,02,05,00,12,1.50
2008,02,05,00,13,2.30
2008,02,05,00,14,1.30
2008,02,05,00,15,0.00
2008,02,05,00,16,0.40
2008,02,05,00,17,2.80
2008,02,05,00,18,0.70
2008,02,05,00,19,2.30
2008,02,05,00,20,3.50
2008,02,05,00,21,3.70
2008,02,05,00,22,2.80
2008,02,05,00,23,0.00
2008,02,05,00,24,1.60
2008,02,05,00,25,2.60
2008,02,05,00,26,3.60
2008,02,05,00,27,5.20
2008,02,05,00,28,2.60
2008,02,05,00,29,3.70
2008,02,05,00,30,2.80
2008,02,05,00,31,2.70
2008,02,05,00,32,2.00
2008,02,05,00,33,2.10
2008,02,05,00,34,2.40
2008,02,05,00,35,2.80
2008,02,05,00,36,0.60
2008,02,05,00,37,3.40
2008,02,05,00,38,6.60
2008,02,05,00,39,3.90
2008,02,05,00,40,3.30
2008,02,05,00,41,2.80
2008,02,05,00,42,2.20
2008,02,05,00,43,2.30
2008,02,05,00,44,2.10
2008,02,05,00,45,3.60
2008,02,05,00,46,3.20
2008,02,05,00,47,4.70
2008,02,05,00,48,3.60
2008,02,05,00,49,1.20
2008,02,05,00,50,1.80
2008,02,05,00,51,2.70
2008,02,05,00,52,3.00
2008,02,05,00,53,2.90
2008,02,05,00,54,3.30
2008,02,05,00,55,5.50
2008,02,05,00,56,3.20
2008,02,05,00,57,1.40
2008,02,05,00,58,0.40
2008,02,05,00,59,0.80
2008,02,05,01,00,1.60
2008,02,05,01,01,4.90
2008,02,05,01,02,3.60
2008,02,05,01,03,0.90
2008,02,05,01,04,0.10
2008,02,05,01,05,0.80
2008,02,05,01,06,0.00
2008,02,05,01,07,1.30
2008,02,05,01,08,3.00
2008,02,05,01,09,3.00
2008,02,05,01,10,2.50
2008,02,05,01,11,2.50
2008,02,05,01,12,1.70
2008,02,05,01,13,0.10
2008,02,05,01,14,0.10
2008,02,05,01,15,3.60
2008,02,05,01,16,4.10
2008,02,05,01,17,2.40
2008,02,05,01,18,4.30
2008,02,05,01,19,3.80
2008,02,05,01,20,4.10
2008,02,05,01,21,4.20
2008,02,05,01,22,2.80
2008,02,05,01,23,2.10
2008,02,05,01,24,1.20
2008,02,05,01,25,3.20
2008,02,05,01,26,3.70
2008,02,05,01,27,6.10
2008,02,05,01,28,3.00
2008,02,05,01,29,2.60
2008,02,05,01,30,3.70
2008,02,05,01,31,5.50
2008,02,05,01,32,3.90
2008,02,05,01,33,2.40
2008,02,05,01,34,3.10
2008,02,05,01,35,3.60
2008,02,05,01,36,2.80
2008,02,05,01,37,2.80
2008,02,05,01,38,3.40
2008,02,05,01,39,2.90
2008,02,05,01,40,3.20
2008,02,05,01,41,0.70
2008,02,05,01,42,1.80
2008,02,05,01,43,6.20
2008,02,05,01,44,2.80
2008,02,05,01,45,2.60
2008,02,05,01,46,5.10
2008,02,05,01,47,5.40
2008,02,05,01,48,6.60
2008,02,05,01,49,2.90
2008,02,05,01,50,3.50
2008,02,05,01,51,6.20
2008,02,05,01,52,3.80
2008,02,05,01,53,3.90
2008,02,05,01,54,3.70
2008,02,05,01,55,3.30
2008,02,05,01,56,2.30
2008,02,05,01,57,1.00
2008,02,05,01,58,2.30
2008,02,05,01,59,5.10
2008,02,05,02,00,2.60
2008,02,05,02,01,3.80
2008,02,05,02,02,6.20
2008,02,05,02,03,3.80
2008,02,05,02,04,3.10
2008,02,05,02,05,2.40
2008,02,05,02,06,2.40
2008,02,05,02,07,5.80
2008,02,05,02,08,2.80
2008,02,05,02,09,4.60
2008,02,05,02,10,3.90
2008,02,05,02,11,5.70
2008,02,05,02,12,2.00
2008,02,05,02,13,3.20
2008,02,05,02,14,2.40
2008,02,05,02,15,2.90
2008,02,05,02,16,4.80
2008,02,05,02,17,3.30
2008,02,05,02,18,2.80
2008,02,05,02,19,4.60
2008,02,05,02,20,4.90
2008,02,05,02,21,4.10
2008,02,05,02,22,3.10
2008,02,05,02,23,4.10
2008,02,05,02,24,4.30
2008,02,05,02,25,2.40
2008,02,05,02,26,5.00
2008,02,05,02,27,8.10
2008,02,05,02,28,5.60
2008,02,05,02,29,5.10
2008,02,05,02,30,3.60
2008,02,05,02,31,3.50
2008,02,05,02,32,1.20
2008,02,05,02,33,1.00
2008,02,05,02,34,1.30
2008,02,05,02,35,1.20
2008,02,05,02,36,4.40
2008,02,05,02,37,3.20
2008,02,05,02,38,1.90
2008,02,05,02,39,3.30
2008,02,05,02,40,4.10
2008,02,05,02,41,5.30
2008,02,05,02,42,3.40
2008,02,05,02,43,3.90
2008,02,05,02,44,2.70
2008,02,05,02,45,3.10
2008,02,05,02,46,3.20
2008,02,05,02,47,2.60
2008,02,05,02,48,4.00
2008,02,05,02,49,2.90
2008,02,05,02,50,2.20
2008,02,05,02,51,1.40
2008,02,05,02,52,1.30
2008,02,05,02,53,3.10
2008,02,05,02,54,5.10
2008,02,05,02,55,4.50
2008,02,05,02,56,4.50
2008,02,05,02,57,2.10
2008,02,05,02,58,0.90
2008,02,05,02,59,1.50
2008,02,05,03,00,4.10
2008,02,05,03,01,3.70
2008,02,05,03,02,2.90
2008,02,05,03,03,3.70
2008,02,05,03,04,3.80
2008,02,05,03,05,4.00
2008,02,05,03,06,3.80
2008,02,05,03,07,3.90
2008,02,05,03,08,2.70
2008,02,05,03,09,2.20
2008,02,05,03,10,0.60
2008,02,05,03,11,3.00
2008,02,05,03,12,2.70
2008,02,05,03,13,1.20
2008,02,05,03,14,3.20
2008,02,05,03,15,0.20
2008,02,05,03,16,0.50
2008,02,05,03,17,5.10
2008,02,05,03,18,4.70
2008,02,05,03,19,4.50
2008,02,05,03,20,3.80
2008,02,05,03,21,2.10
2008,02,05,03,22,0.20
2008,02,05,03,23,1.40
2008,02,05,03,24,1.50
2008,02,05,03,25,3.80
2008,02,05,03,26,3.20
2008,02,05,03,27,4.70
2008,02,05,03,28,2.80
2008,02,05,03,29,3.00
2008,02,05,03,30,4.60
2008,02,05,03,31,3.90
2008,02,05,03,32,2.40
2008,02,05,03,33,5.20
2008,02,05,03,34,4.50
2008,02,05,03,35,3.80
2008,02,05,03,36,2.50
2008,02,05,03,37,0.30
2008,02,05,03,38,2.30
2008,02,05,03,39,3.40
2008,02,05,03,40,5.00
2008,02,05,03,41,6.20
2008,02,05,03,42,6.20
2008,02,05,03,43,3.80
2008,02,05,03,44,3.70
2008,02,05,03,45,3.70
2008,02,05,03,46,3.90
2008,02,05,03,47,6.00
2008,02,05,03,48,4.60
2008,02,05,03,49,1.80
2008,02,05,03,50,3.40
2008,02,05,03,51,2.50
2008,02,05,03,52,2.60
2008,02,05,03,53,4.80
2008,02,05,03,54,2.80
2008,02,05,03,55,3.00
2008,02,05,03,56,3.30
2008,02,05,03,57,4.30
2008,02,05,03,58,4.60
2008,02,05,03,59,3.10
2008,02,05,04,00,3.60
2008,02,05,04,01,2.80
2008,02,05,04,02,2.60
2008,02,05,04,03,4.40
2008,02,05,04,04,4.60
2008,02,05,04,05,4.30
2008,02,05,04,06,5.70
2008,02,05,04,07,6.70
2008,02,05,04,08,5.30
2008,02,05,04,09,4.00
2008,02,05,04,10,2.80
2008,02,05,04,11,3.70
2008,02,05,04,12,3.70
2008,02,05,04,13,4.70
2008,02,05,04,14,4.30
2008,02,05,04,15,3.90
2008,02,05,04,16,4.60
2008,02,05,04,17,0.80
2008,02,05,04,18,2.90
2008,02,05,04,19,4.00
2008,02,05,04,20,5.00
2008,02,05,04,21,5.50
2008,02,05,04,22,5.00
2008,02,05,04,23,4.00
2008,02,05,04,24,4.40
2008,02,05,04,25,2.40
2008,02,05,04,26,0.00
2008,02,05,04,27,4.20
2008,02,05,04,28,2.30
2008,02,05,04,29,4.20
2008,02,05,04,30,7.20
2008,02,05,04,31,6.00
2008,02,05,04,32,4.60
2008,02,05,04,33,4.70
2008,02,05,04,34,3.10
2008,02,05,04,35,5.90
2008,02,05,04,36,3.20
2008,02,05,04,37,4.60
2008,02,05,04,38,3.50
2008,02,05,04,39,0.90
2008,02,05,04,40,0.20
2008,02,05,04,41,2.10
2008,02,05,04,42,3.30
2008,02,05,04,43,2.90
2008,02,05,04,44,2.10
2008,02,05,04,45,1.80
2008,02,05,04,46,3.60
2008,02,05,04,47,4.30
2008,02,05,04,48,4.30
2008,02,05,04,49,3.10
2008,02,05,04,50,2.60
2008,02,05,04,51,2.70
2008,02,05,04,52,1.90
2008,02,05,04,53,2.10
2008,02,05,04,54,2.70
2008,02,05,04,55,1.90
2008,02,05,04,56,2.90
2008,02,05,04,57,2.20
2008,02,05,04,58,0.80
2008,02,05,04,59,0.40
2008,02,05,05,00,2.30
2008,02,05,05,01,3.30
2008,02,05,05,02,5.00
2008,02,05,05,03,3.70
2008,02,05,05,04,3.00
2008,02,05,05,05,3.60
2008,02,05,05,06,2.40
2008,02,05,05,07,2.50
2008,02,05,05,08,2.90
2008,02,05,05,09,2.60
2008,02,05,05,10,4.40
2008,02,05,05,11,1.90
2008,02,05,05,12,4.50
2008,02,05,05,13,3.90
2008,02,05,05,14,5.70
2008,02,05,05,15,6.80
2008,02,05,05,16,3.50
2008,02,05,05,17,3.10
2008,02,05,05,18,4.30
2008,02,05,05,19,4.90
2008,02,05,05,20,3.60
2008,02,05,05,21,0.90
2008,02,05,05,22,2.00
2008,02,05,05,23,3.40
2008,02,05,05,24,3.90
2008,02,05,05,25,3.60
2008,02,05,05,26,5.50
2008,02,05,05,27,3.60
2008,02,05,05,28,2.70
2008,02,05,05,29,2.20
2008,02,05,05,30,1.10
2008,02,05,05,31,2.40
2008,02,05,05,32,1.50
2008,02,05,05,33,1.10
2008,02,05,05,34,0.00
2008,02,05,05,35,0.70
2008,02,05,05,36,0.70
2008,02,05,05,37,1.20
2008,02,05,05,38,0.30
2008,02,05,05,39,0.60
2008,02,05,05,40,2.30
2008,02,05,05,41,1.90
2008,02,05,05,42,1.70
2008,02,05,05,43,2.70
2008,02,05,05,44,2.10
2008,02,05,05,45,1.70
2008,02,05,05,46,1.00
2008,02,05,05,47,3.70
2008,02,05,05,48,1.50
2008,02,05,05,49,1.50
2008,02,05,05,50,2.20
2008,02,05,05,51,1.10
2008,02,05,05,52,0.90
2008,02,05,05,53,1.50
2008,02,05,05,54,0.00
2008,02,05,05,55,0.50
2008,02,05,05,56,0.00
2008,02,05,05,57,0.00
2008,02,05,05,58,1.90
2008,02,05,05,59,2.70
2008,02,05,06,00,1.40
2008,02,05,06,01,0.00
2008,02,05,06,02,2.90
2008,02,05,06,03,4.50
2008,02,05,06,04,2.80
2008,02,05,06,05,1.60
2008,02,05,06,06,5.00
2008,02,05,06,07,2.60
2008,02,05,06,08,3.00
2008,02,05,06,09,2.10
2008,02,05,06,10,2.00
2008,02,05,06,11,4.40
2008,02,05,06,12,2.80
2008,02,05,06,13,0.40
2008,02,05,06,14,1.10
2008,02,05,06,15,2.40
2008,02,05,06,16,2.20
2008,02,05,06,17,4.00
2008,02,05,06,18,4.20
2008,02,05,06,19,1.60
2008,02,05,06,20,0.30
2008,02,05,06,21,2.90
2008,02,05,06,22,3.20
2008,02,05,06,23,4.90
2008,02,05,06,24,1.30
2008,02,05,06,25,3.50
2008,02,05,06,26,5.30
2008,02,05,06,27,3.10
2008,02,05,06,28,2.10
2008,02,05,06,29,3.00
2008,02,05,06,30,2.60
2008,02,05,06,31,3.40
2008,02,05,06,32,2.20
2008,02,05,06,33,0.60
2008,02,05,06,34,0.00
2008,02,05,06,35,2.30
2008,02,05,06,36,2.40
2008,02,05,06,37,2.40
2008,02,05,06,38,0.20
2008,02,05,06,39,3.50
2008,02,05,06,40,3.80
2008,02,05,06,41,3.90
2008,02,05,06,42,3.20
2008,02,05,06,43,2.70
2008,02,05,06,44,3.30
2008,02,05,06,45,4.70
2008,02,05,06,46,4.90
2008,02,05,06,47,4.30
2008,02,05,06,48,3.60
2008,02,05,06,49,2.30
2008,02,05,06,50,4.60
2008,02,05,06,51,2.40
2008,02,05,06,52,2.50
2008,02,05,06,53,0.90
2008,02,05,06,54,2.10
2008,02,05,06,55,0.40
2008,02,05,06,56,4.60
2008,02,05,06,57,4.70
2008,02,05,06,58,0.80
2008,02,05,06,59,1.80
2008,02,05,07,00,3.40
2008,02,05,07,01,3.80
2008,02,05,07,02,2.90
2008,02,05,07,03,3.60
2008,02,05,07,04,0.90
2008,02,05,07,05,3.90
2008,02,05,07,06,5.30
2008,02,05,07,07,5.70
2008,02,05,07,08,4.50
2008,02,05,07,09,3.40
2008,02,05,07,10,2.40
2008,02,05,07,11,1.50
2008,02,05,07,12,3.40
2008,02,05,07,13,2.50
2008,02,05,07,14,4.20
2008,02,05,07,15,5.00
2008,02,05,07,16,3.80
2008,02,05,07,17,3.80
2008,02,05,07,18,3.00
2008,02,05,07,19,1.80
2008,02,05,07,20,1.60
2008,02,05,07,21,1.50
2008,02,05,07,22,2.10
2008,02,05,07,23,3.00
2008,02,05,07,24,2.80
2008,02,05,07,25,6.40
2008,02,05,07,26,3.00
2008,02,05,07,27,3.40
2008,02,05,07,28,2.70
2008,02,05,07,29,2.20
2008,02,05,07,30,0.30
2008,02,05,07,31,1.80
2008,02,05,07,32,2.40
2008,02,05,07,33,2.20
2008,02,05,07,34,4.10
2008,02,05,07,35,3.60
2008,02,05,07,36,5.80
2008,02,05,07,37,4.40
2008,02,05,07,38,2.30
2008,02,05,07,39,1.50
2008,02,05,07,40,2.20
2008,02,05,07,41,5.90
2008,02,05,07,42,5.80
2008,02,05,07,43,6.70
2008,02,05,07,44,6.10
2008,02,05,07,45,5.20
2008,02,05,07,46,7.00
2008,02,05,07,47,5.70
2008,02,05,07,48,5.80
2008,02,05,07,49,5.60
2008,02,05,07,50,2.70
2008,02,05,07,51,1.90
2008,02,05,07,52,0.60
2008,02,05,07,53,0.00
2008,02,05,07,54,0.70
2008,02,05,07,55,1.90
2008,02,05,07,56,2.20
2008,02,05,07,57,0.30
2008,02,05,07,58,0.10
2008,02,05,07,59,3.80
2008,02,05,08,00,4.70
2008,02,05,08,01,2.90
2008,02,05,08,02,3.50
2008,02,05,08,03,5.00
2008,02,05,08,04,5.10
2008,02,05,08,05,5.40
2008,02,05,08,06,0.60
2008,02,05,08,07,0.30
2008,02,05,08,08,2.40
2008,02,05,08,09,2.60
2008,02,05,08,10,2.10
2008,02,05,08,11,1.00
2008,02,05,08,12,0.40
2008,02,05,08,13,2.20
2008,02,05,08,14,0.80
2008,02,05,08,15,0.00
2008,02,05,08,16,0.00
2008,02,05,08,17,2.50
2008,02,05,08,18,2.90
2008,02,05,08,19,2.00
2008,02,05,08,20,0.20
2008,02,05,08,21,0.80
2008,02,05,08,22,2.50
2008,02,05,08,23,1.70
2008,02,05,08,24,2.70
2008,02,05,08,25,1.10
2008,02,05,08,26,0.00
2008,02,05,08,27,0.00
2008,02,05,08,28,0.30
2008,02,05,08,29,0.30
2008,02,05,08,30,0.40
2008,02,05,08,31,0.50
2008,02,05,08,32,2.20
2008,02,05,08,33,1.70
2008,02,05,08,34,1.40
2008,02,05,08,35,2.80
2008,02,05,08,36,2.20
2008,02,05,08,37,2.40
2008,02,05,08,38,2.70
2008,02,05,08,39,3.70
2008,02,05,08,40,2.90
2008,02,05,08,41,2.80
2008,02,05,08,42,0.80
2008,02,05,08,43,2.80
2008,02,05,08,44,4.60
2008,02,05,08,45,6.00
2008,02,05,08,46,6.70
2008,02,05,08,47,4.80
2008,02,05,08,48,4.70
2008,02,05,08,49,4.20
2008,02,05,08,50,3.20
2008,02,05,08,51,4.30
2008,02,05,08,52,2.10
2008,02,05,08,53,3.70
2008,02,05,08,54,5.00
2008,02,05,08,55,5.50
2008,02,05,08,56,7.20
2008,02,05,08,57,8.20
2008,02,05,08,58,6.10
2008,02,05,08,59,4.50
2008,02,05,09,00,4.70
2008,02,05,09,01,4.40
2008,02,05,09,02,1.70
2008,02,05,09,03,0.00
2008,02,05,09,04,0.00
2008,02,05,09,05,1.60
2008,02,05,09,06,3.20
2008,02,05,09,07,0.20
2008,02,05,09,08,3.40
2008,02,05,09,09,1.60
2008,02,05,09,10,3.50
2008,02,05,09,11,1.90
2008,02,05,09,12,4.80
2008,02,05,09,13,4.30
2008,02,05,09,14,0.40
2008,02,05,09,15,1.30
2008,02,05,09,16,0.90
2008,02,05,09,17,2.10
2008,02,05,09,18,2.30
2008,02,05,09,19,0.90
2008,02,05,09,20,0.10
2008,02,05,09,21,0.10
2008,02,05,09,22,0.00
2008,02,05,09,23,0.00
2008,02,05,09,24,0.70
2008,02,05,09,25,1.70
2008,02,05,09,26,0.00
2008,02,05,09,27,0.10
2008,02,05,09,28,2.30
2008,02,05,09,29,2.00
2008,02,05,09,30,0.00
2008,02,05,09,31,0.00
2008,02,05,09,32,0.00
2008,02,05,09,33,0.00
2008,02,05,09,34,0.20
2008,02,05,09,35,1.30
2008,02,05,09,36,2.30
2008,02,05,09,37,2.30
2008,02,05,09,38,1.70
2008,02,05,09,39,0.00
2008,02,05,09,40,0.30
2008,02,05,09,41,1.20
2008,02,05,09,42,0.10
2008,02,05,09,43,0.00
2008,02,05,09,44,0.00
2008,02,05,09,45,0.00
2008,02,05,09,46,0.00
2008,02,05,09,47,0.00
2008,02,05,09,48,0.00
2008,02,05,09,49,0.20
2008,02,05,09,50,2.00
2008,02,05,09,51,0.20
2008,02,05,09,52,0.70
2008,02,05,09,53,0.00
2008,02,05,09,54,0.20
2008,02,05,09,55,1.30
2008,02,05,09,56,0.00
2008,02,05,09,57,0.00
2008,02,05,09,58,0.00
2008,02,05,09,59,0.00
2008,02,05,10,00,0.00
2008,02,05,10,01,0.00
2008,02,05,10,02,0.00
2008,02,05,10,03,0.00
2008,02,05,10,04,0.00
2008,02,05,10,05,0.30
2008,02,05,10,06,0.00
2008,02,05,10,07,1.10
2008,02,05,10,08,0.00
2008,02,05,10,09,0.00
2008,02,05,10,10,0.00
2008,02,05,10,11,0.00
2008,02,05,10,12,0.40
2008,02,05,10,13,0.00
2008,02,05,10,14,0.00
2008,02,05,10,15,1.90
2008,02,05,10,16,0.00
2008,02,05,10,17,1.00
2008,02,05,10,18,1.10
2008,02,05,10,19,0.20
2008,02,05,10,20,0.00
2008,02,05,10,21,4.80
2008,02,05,10,22,3.00
2008,02,05,10,23,3.40
2008,02,05,10,24,2.20
2008,02,05,10,25,2.90
2008,02,05,10,26,3.40
2008,02,05,10,27,4.40
2008,02,05,10,28,5.30
2008,02,05,10,29,10.10
2008,02,05,10,30,12.00
2008,02,05,10,31,14.70
2008,02,05,10,32,11.20
2008,02,05,10,33,22.40
2008,02,05,10,34,29.00
2008,02,05,10,35,37.60
2008,02,05,10,36,27.70
2008,02,05,10,37,23.40
2008,02,05,10,38,32.90
2008,02,05,10,39,39.00
2008,02,05,10,40,35.00
2008,02,05,10,41,22.10
2008,02,05,10,42,22.80
2008,02,05,10,43,16.10
2008,02,05,10,44,19.50
2008,02,05,10,45,15.60
2008,02,05,10,46,15.30
2008,02,05,10,47,19.50
2008,02,05,10,48,19.70
2008,02,05,10,49,19.00
2008,02,05,10,50,17.80
2008,02,05,10,51,15.50
2008,02,05,10,52,16.80
2008,02,05,10,53,19.20
2008,02,05,10,54,22.90
2008,02,05,10,55,20.80
2008,02,05,10,56,25.60
2008,02,05,10,57,26.70
2008,02,05,10,58,16.70
2008,02,05,10,59,19.30
2008,02,05,11,00,16.70
2008,02,05,11,01,15.10
2008,02,05,11,02,8.70
2008,02,05,11,03,20.30
2008,02,05,11,04,14.50
2008,02,05,11,05,13.00
2008,02,05,11,06,8.60
2008,02,05,11,07,8.80
2008,02,05,11,08,16.10
2008,02,05,11,09,12.30
2008,02,05,11,10,16.70
2008,02,05,11,11,17.20
2008,02,05,11,12,14.20
2008,02,05,11,13,9.70
2008,02,05,11,14,8.50
2008,02,05,11,15,18.50
2008,02,05,11,16,9.80
2008,02,05,11,17,13.20
2008,02,05,11,18,16.00
2008,02,05,11,19,13.80
2008,02,05,11,20,20.20
2008,02,05,11,21,21.30
2008,02,05,11,22,12.40
2008,02,05,11,23,15.60
2008,02,05,11,24,8.90
2008,02,05,11,25,12.90
2008,02,05,11,26,13.10
2008,02,05,11,27,32.80
2008,02,05,11,28,23.60
2008,02,05,11,29,27.40
2008,02,05,11,30,17.20
2008,02,05,11,31,16.50
2008,02,05,11,32,15.60
2008,02,05,11,33,20.40
2008,02,05,11,34,18.40
2008,02,05,11,35,33.50
2008,02,05,11,36,29.00
2008,02,05,11,37,28.10
2008,02,05,11,38,24.20
2008,02,05,11,39,30.40
2008,02,05,11,40,27.00
2008,02,05,11,41,31.40
2008,02,05,11,42,31.50
2008,02,05,11,43,25.10
2008,02,05,11,44,29.20
2008,02,05,11,45,31.20
2008,02,05,11,46,20.20
2008,02,05,11,47,32.60
2008,02,05,11,48,30.50
2008,02,05,11,49,34.10
2008,02,05,11,50,26.00
2008,02,05,11,51,32.50
2008,02,05,11,52,25.30
2008,02,05,11,53,25.20
2008,02,05,11,54,26.40
2008,02,05,11,55,25.40
2008,02,05,11,56,22.40
2008,02,05,11,57,15.20
2008,02,05,11,58,19.00
2008,02,05,11,59,20.20
2008,02,05,12,00,23.70
2008,02,05,12,01,23.80
2008,02,05,12,02,9.90
2008,02,05,12,03,10.00
2008,02,05,12,04,19.60
2008,02,05,12,05,25.40
2008,02,05,12,06,16.00
2008,02,05,12,07,16.90
2008,02,05,12,08,23.70
2008,02,05,12,09,25.00
2008,02,05,12,10,20.80
2008,02,05,12,11,16.30
2008,02,05,12,12,18.60
2008,02,05,12,13,20.50
2008,02,05,12,14,16.80
2008,02,05,12,15,16.10
2008,02,05,12,16,27.40
2008,02,05,12,17,40.10
2008,02,05,12,18,30.70
2008,02,05,12,19,33.70
2008,02,05,12,20,31.30
2008,02,05,12,21,28.70
2008,02,05,12,22,31.60
2008,02,05,12,23,33.30
2008,02,05,12,24,26.50
2008,02,05,12,25,24.90
2008,02,05,12,26,24.10
2008,02,05,12,27,35.70
2008,02,05,12,28,28.70
2008,02,05,12,29,27.90
2008,02,05,12,30,33.20
2008,02,05,12,31,35.70
2008,02,05,12,32,39.70
2008,02,05,12,33,37.00
2008,02,05,12,34,31.00
2008,02,05,12,35,36.70
2008,02,05,12,36,26.60
2008,02,05,12,37,24.00
2008,02,05,12,38,32.50
2008,02,05,12,39,27.50
2008,02,05,12,40,23.90
2008,02,05,12,41,22.40
2008,02,05,12,42,24.50
2008,02,05,12,43,30.20
2008,02,05,12,44,18.60
2008,02,05,12,45,21.20
2008,02,05,12,46,30.60
2008,02,05,12,47,32.60
2008,02,05,12,48,32.20
2008,02,05,12,49,27.70
2008,02,05,12,50,26.30
2008,02,05,12,51,29.30
2008,02,05,12,52,46.40
2008,02,05,12,53,48.60
2008,02,05,12,54,33.40
2008,02,05,12,55,30.30
2008,02,05,12,56,38.20
2008,02,05,12,57,49.60
2008,02,05,12,58,37.10
2008,02,05,12,59,31.30
2008,02,05,13,00,38.50
2008,02,05,13,01,26.20
2008,02,05,13,02,31.20
2008,02,05,13,03,18.50
2008,02,05,13,04,20.10
2008,02,05,13,05,24.90
2008,02,05,13,06,14.80
2008,02,05,13,07,9.50
2008,02,05,13,08,18.70
2008,02,05,13,09,13.00
2008,02,05,13,10,15.30
2008,02,05,13,11,18.50
2008,02,05,13,12,22.90
2008,02,05,13,13,27.40
2008,02,05,13,14,25.50
2008,02,05,13,15,28.30
2008,02,05,13,16,26.40
2008,02,05,13,17,17.00
2008,02,05,13,18,25.00
2008,02,05,13,19,27.40
2008,02,05,13,20,32.60
2008,02,05,13,21,21.90
2008,02,05,13,22,26.30
2008,02,05,13,23,44.20
2008,02,05,13,24,35.40
2008,02,05,13,25,30.20
2008,02,05,13,26,30.10
2008,02,05,13,27,33.30
2008,02,05,13,28,32.30
2008,02,05,13,29,26.90
2008,02,05,13,30,25.40
2008,02,05,13,31,26.60
2008,02,05,13,32,32.60
2008,02,05,13,33,28.20
2008,02,05,13,34,28.80
2008,02,05,13,35,23.00
2008,02,05,13,36,25.10
2008,02,05,13,37,33.30
2008,02,05,13,38,19.00
2008,02,05,13,39,22.30
2008,02,05,13,40,28.50
2008,02,05,13,41,35.10
2008,02,05,13,42,29.40
2008,02,05,13,43,19.40
2008,02,05,13,44,25.70
2008,02,05,13,45,21.70
2008,02,05,13,46,34.80
2008,02,05,13,47,24.90
2008,02,05,13,48,26.90
2008,02,05,13,49,31.50
2008,02,05,13,50,24.60
2008,02,05,13,51,26.20
2008,02,05,13,52,26.30
2008,02,05,13,53,20.00
2008,02,05,13,54,22.70
2008,02,05,13,55,23.40
2008,02,05,13,56,17.70
2008,02,05,13,57,28.70
2008,02,05,13,58,26.20
2008,02,05,13,59,39.00
2008,02,05,14,00,23.60
2008,02,05,14,01,18.60
2008,02,05,14,02,16.90
2008,02,05,14,03,25.30
2008,02,05,14,04,20.30
2008,02,05,14,05,31.30
2008,02,05,14,06,36.10
2008,02,05,14,07,49.90
2008,02,05,14,08,40.70
2008,02,05,14,09,43.20
2008,02,05,14,10,44.10
2008,02,05,14,11,50.60
2008,02,05,14,12,48.80
2008,02,05,14,13,38.10
2008,02,05,14,14,26.20
2008,02,05,14,15,26.30
2008,02,05,14,16,30.80
2008,02,05,14,17,24.10
2008,02,05,14,18,21.50
2008,02,05,14,19,23.90
2008,02,05,14,20,29.40
2008,02,05,14,21,17.40
2008,02,05,14,22,23.30
2008,02,05,14,23,34.70
2008,02,05,14,24,21.10
2008,02,05,14,25,17.90
2008,02,05,14,26,29.50
2008,02,05,14,27,23.50
2008,02,05,14,28,20.10
2008,02,05,14,29,24.20
2008,02,05,14,30,26.40
2008,02,05,14,31,36.40
2008,02,05,14,32,32.30
2008,02,05,14,33,29.70
2008,02,05,14,34,31.00
2008,02,05,14,35,25.30
2008,02,05,14,36,22.40
2008,02,05,14,37,18.30
2008,02,05,14,38,20.00
2008,02,05,14,39,23.80
2008,02,05,14,40,21.80
2008,02,05,14,41,25.90
2008,02,05,14,42,19.10
2008,02,05,14,43,20.60
2008,02,05,14,44,18.50
2008,02,05,14,45,21.30
2008,02,05,14,46,23.60
2008,02,05,14,47,21.40
2008,02,05,14,48,28.30
2008,02,05,14,49,27.60
2008,02,05,14,50,24.90
2008,02,05,14,51,25.90
2008,02,05,14,52,15.90
2008,02,05,14,53,19.70
2008,02,05,14,54,18.20
2008,02,05,14,55,24.20
2008,02,05,14,56,24.50
2008,02,05,14,57,20.40
2008,02,05,14,58,27.70
2008,02,05,14,59,24.00
2008,02,05,15,00,16.20
2008,02,05,15,01,16.20
2008,02,05,15,02,21.30
2008,02,05,15,03,31.00
2008,02,05,15,04,30.00
2008,02,05,15,05,36.40
2008,02,05,15,06,30.70
2008,02,05,15,07,31.50
2008,02,05,15,08,24.00
2008,02,05,15,09,27.90
2008,02,05,15,10,25.30
2008,02,05,15,11,32.30
2008,02,05,15,12,20.90
2008,02,05,15,13,21.80
2008,02,05,15,14,25.10
2008,02,05,15,15,32.40
2008,02,05,15,16,31.80
2008,02,05,15,17,39.10
2008,02,05,15,18,38.10
2008,02,05,15,19,40.50
2008,02,05,15,20,28.70
2008,02,05,15,21,22.90
2008,02,05,15,22,20.50
2008,02,05,15,23,22.40
2008,02,05,15,24,16.60
2008,02,05,15,25,19.80
2008,02,05,15,26,20.30
2008,02,05,15,27,21.70
2008,02,05,15,28,26.10
2008,02,05,15,29,26.40
2008,02,05,15,30,33.90
2008,02,05,15,31,41.30
2008,02,05,15,32,34.50
2008,02,05,15,33,42.80
2008,02,05,15,34,28.70
2008,02,05,15,35,24.10
2008,02,05,15,36,22.20
2008,02,05,15,37,30.00
2008,02,05,15,38,36.00
2008,02,05,15,39,29.60
2008,02,05,15,40,32.40
2008,02,05,15,41,28.30
2008,02,05,15,42,26.50
2008,02,05,15,43,26.90
2008,02,05,15,44,24.80
2008,02,05,15,45,23.40
2008,02,05,15,46,26.20
2008,02,05,15,47,23.80
2008,02,05,15,48,17.90
2008,02,05,15,49,15.30
2008,02,05,15,50,20.50
2008,02,05,15,51,18.70
2008,02,05,15,52,15.80
2008,02,05,15,53,22.70
2008,02,05,15,54,11.20
2008,02,05,15,55,22.80
2008,02,05,15,56,22.80
2008,02,05,15,57,18.00
2008,02,05,15,58,23.90
2008,02,05,15,59,22.40
2008,02,05,16,00,19.00
2008,02,05,16,01,20.50
2008,02,05,16,02,21.70
2008,02,05,16,03,16.30
2008,02,05,16,04,20.70
2008,02,05,16,05,21.90
2008,02,05,16,06,17.70
2008,02,05,16,07,20.70
2008,02,05,16,08,18.80
2008,02,05,16,09,18.10
2008,02,05,16,10,37.80
2008,02,05,16,11,38.40
2008,02,05,16,12,35.50
2008,02,05,16,13,26.70
2008,02,05,16,14,31.00
2008,02,05,16,15,27.00
2008,02,05,16,16,34.00
2008,02,05,16,17,37.60
2008,02,05,16,18,29.20
2008,02,05,16,19,24.90
2008,02,05,16,20,15.60
2008,02,05,16,21,12.20
2008,02,05,16,22,22.50
2008,02,05,16,23,14.70
2008,02,05,16,24,20.40
2008,02,05,16,25,21.60
2008,02,05,16,26,17.80
2008,02,05,16,27,10.50
2008,02,05,16,28,25.20
2008,02,05,16,29,26.60
2008,02,05,16,30,21.50
2008,02,05,16,31,15.60
2008,02,05,16,32,19.20
2008,02,05,16,33,24.90
2008,02,05,16,34,22.80
2008,02,05,16,35,24.10
2008,02,05,16,36,20.40
2008,02,05,16,37,18.50
2008,02,05,16,38,17.40
2008,02,05,16,39,19.00
2008,02,05,16,40,27.00
2008,02,05,16,41,29.10
2008,02,05,16,42,17.50
2008,02,05,16,43,23.30
2008,02,05,16,44,26.70
2008,02,05,16,45,28.70
2008,02,05,16,46,23.80
2008,02,05,16,47,30.20
2008,02,05,16,48,25.80
2008,02,05,16,49,29.90
2008,02,05,16,50,34.10
2008,02,05,16,51,29.10
2008,02,05,16,52,29.00
2008,02,05,16,53,23.50
2008,02,05,16,54,26.70
2008,02,05,16,55,13.30
2008,02,05,16,56,19.10
2008,02,05,16,57,21.70
2008,02,05,16,58,29.50
2008,02,05,16,59,25.80
2008,02,05,17,00,31.50
2008,02,05,17,01,25.00
2008,02,05,17,02,29.00
2008,02,05,17,03,28.00
2008,02,05,17,04,24.90
2008,02,05,17,05,24.20
2008,02,05,17,06,24.70
2008,02,05,17,07,18.80
2008,02,05,17,08,26.40
2008,02,05,17,09,26.90
2008,02,05,17,10,24.10
2008,02,05,17,11,31.60
2008,02,05,17,12,27.80
2008,02,05,17,13,31.20
2008,02,05,17,14,32.90
2008,02,05,17,15,25.10
2008,02,05,17,16,28.00
2008,02,05,17,17,29.70
2008,02,05,17,18,23.60
2008,02,05,17,19,25.30
2008,02,05,17,20,37.30
2008,02,05,17,21,30.70
2008,02,05,17,22,30.70
2008,02,05,17,23,24.30
2008,02,05,17,24,28.00
2008,02,05,17,25,21.60
2008,02,05,17,26,19.10
2008,02,05,17,27,17.60
2008,02,05,17,28,26.60
2008,02,05,17,29,19.10
2008,02,05,17,30,32.00
2008,02,05,17,31,23.40
2008,02,05,17,32,31.30
2008,02,05,17,33,18.20
2008,02,05,17,34,31.60
2008,02,05,17,35,28.60
2008,02,05,17,36,24.60
2008,02,05,17,37,25.20
2008,02,05,17,38,23.00
2008,02,05,17,39,29.50
2008,02,05,17,40,29.00
2008,02,05,17,41,21.60
2008,02,05,17,42,28.00
2008,02,05,17,43,30.20
2008,02,05,17,44,23.90
2008,02,05,17,45,19.90
2008,02,05,17,46,24.90
2008,02,05,17,47,18.20